EW1390 Weather Reports


time (UTC)temp
C
wind
direction
speed
KPH
gust
KPH
rain 1hr
cm
rain 24hr
cm
rain mn
cm
humidity
%
barometer
mb
20260901094544 11 219 0.0 0.0 0.00 0.00 0.00 75 1005.1
20260901093037 11 219 0.0 0.0 0.00 0.00 0.00 75 1005.1
20260901091551 12 219 0.0 0.0 0.00 0.00 0.00 75 1005.1
20260901090036 12 219 0.0 0.0 0.00 0.00 0.00 73 1005.2
20260901084538 12 219 0.0 0.0 0.00 0.00 0.00 72 1005.4
20260901083039 12 219 0.0 0.0 0.00 0.00 0.00 72 1005.6
20260901081528 12 219 0.0 0.0 0.00 0.00 0.00 71 1005.7
20260901074524 12 219 0.0 0.0 0.00 0.00 0.00 70 1005.5
20260901073023 13 219 0.0 0.0 0.00 0.00 0.00 69 1005.4
20260901071521 13 219 0.0 0.0 0.00 0.00 0.00 69 1005.4
20260901070028 13 219 0.0 0.0 0.00 0.00 0.00 68 1005.2
20260901064518 13 219 0.0 0.0 0.00 0.00 0.00 68 1005.3
20260901063018 13 219 0.0 0.0 0.00 0.00 0.00 67 1005.2
20260901061515 13 219 0.0 0.0 0.00 0.00 0.00 67 1005.0
20260901060011 13 219 0.0 0.0 0.00 0.00 0.00 66 1004.9
20260901054508 14 219 0.0 0.0 0.00 0.00 0.00 65 1004.9
20260901053006 15 219 0.0 0.0 0.00 0.00 0.00 64 1004.8
20260901051503 15 219 0.0 0.0 0.00 0.00 0.00 63 1005.0
20260901050100 15 219 0.0 0.0 0.00 0.00 0.00 62 1005.1
20260901044615 16 219 0.0 0.0 0.00 0.00 0.00 61 1004.9
20260901043053 16 219 0.0 0.0 0.00 0.00 0.00 59 1004.8
20260901041550 17 219 0.0 0.0 0.00 0.00 0.00 56 1004.6
20260901040057 17 219 0.0 0.0 0.00 0.00 0.00 54 1004.4
20260901034542 17 219 0.0 1.6 0.00 0.00 0.00 53 1004.2
20260901033039 18 219 0.0 0.0 0.00 0.00 0.00 52 1004.1
20260901031536 18 219 0.0 0.0 0.00 0.00 0.00 49 1004.0
20260901030034 20 219 0.0 1.6 0.00 0.00 0.00 47 1003.7
20260901024531 20 219 0.0 3.2 0.00 0.00 0.00 45 1003.6
20260901023021 21 219 1.6 3.2 0.00 0.00 0.00 42 1003.5
20260901021519 23 219 0.0 0.0 0.00 0.00 0.00 39 1003.4
20260901020013 24 219 0.0 3.2 0.00 0.00 0.00 37 1003.3
20260901014509 25 219 0.0 3.2 0.00 0.00 0.00 35 1003.4
20260901013007 25 194 1.6 9.7 0.00 0.00 0.00 33 1003.4
20260901011504 26 248 1.6 4.8 0.00 0.00 0.00 33 1003.4
20260901010059 26 288 0.0 3.2 0.00 0.00 0.00 31 1003.4
20260901004556 27 114 0.0 6.4 0.00 0.00 0.00 31 1003.3
20260901003054 28 178 0.0 6.4 0.00 0.00 0.00 31 1003.3
20260901001550 28 265 0.0 8.0 0.00 0.00 0.00 31 1003.5
20260831234558 28 282 0.0 6.4 0.00 0.00 0.00 31 1003.5
20260831233056 28 236 0.0 11.3 0.00 0.00 0.00 28 1003.6
20260831231604 28 159 0.0 4.8 0.00 0.00 0.00 27 1003.6
20260831230059 28 212 3.2 16.1 0.00 0.00 0.00 26 1003.7
20260831224621 28 165 4.8 11.3 0.00 0.00 0.00 28 1003.8
20260831223047 28 231 0.0 8.0 0.00 0.00 0.00 27 1003.9
20260831221552 28 340 1.6 8.0 0.00 0.00 0.00 29 1004.1
20260831220050 28 210 0.0 4.8 0.00 0.00 0.00 30 1004.2
20260831214548 28 201 0.0 6.4 0.00 0.00 0.00 31 1004.2
20260831213043 28 238 1.6 12.9 0.00 0.00 0.00 31 1004.4
20260831211555 28 125 1.6 8.0 0.00 0.00 0.00 31 1004.3
20260831210039 27 275 0.0 14.5 0.00 0.00 0.00 33 1004.4
20260831204540 27 310 0.0 11.3 0.00 0.00 0.00 34 1004.4
20260831203041 27 24 1.6 11.3 0.00 0.00 0.00 33 1004.5
20260831201537 27 215 1.6 12.9 0.00 0.00 0.00 35 1004.5
20260831200036 27 223 1.6 14.5 0.00 0.00 0.00 35 1004.6
20260831194550 27 209 1.6 12.9 0.00 0.00 0.00 35 1004.8
20260831193047 27 257 3.2 11.3 0.00 0.00 0.00 34 1004.7
20260831191544 27 286 3.2 11.3 0.00 0.00 0.00 34 1004.7
20260831190030 27 104 1.6 8.0 0.00 0.00 0.00 34 1004.7
20260831184529 27 221 1.6 8.0 0.00 0.00 0.00 34 1004.7
20260831183029 27 221 0.0 6.4 0.00 0.00 0.00 35 1004.7
20260831181525 26 113 1.6 8.0 0.00 0.00 0.00 36 1004.8
20260831180021 26 211 0.0 4.8 0.00 0.00 0.00 38 1004.7
20260831174518 26 213 1.6 8.0 0.00 0.00 0.00 38 1004.6
20260831173016 25 148 0.0 6.4 0.00 0.00 0.00 40 1004.6
20260831171509 24 169 0.0 3.2 0.00 0.00 0.00 43 1004.4
20260831170005 22 173 0.0 4.8 0.00 0.00 0.00 48 1004.3
20260831164502 21 238 0.0 6.4 0.00 0.00 0.00 55 1004.3
20260831163057 17 263 0.0 4.8 0.00 0.00 0.00 72 1004.3
20260831161551 16 263 0.0 0.0 0.00 0.00 0.00 81 1004.2
20260831160048 15 263 0.0 0.0 0.00 0.00 0.00 82 1004.2
20260831154613 13 263 0.0 0.0 0.00 0.00 0.00 83 1004.2
20260831153045 13 263 0.0 0.0 0.00 0.00 0.00 82 1004.3
20260831151559 12 263 0.0 0.0 0.00 0.00 0.00 82 1004.2
20260831150042 12 263 0.0 0.0 0.00 0.00 0.00 82 1004.1
20260831144541 11 263 0.0 0.0 0.00 0.00 0.00 81 1004.0
20260831143041 11 263 0.0 0.0 0.00 0.00 0.00 81 1003.9
20260831141541 11 263 0.0 0.0 0.00 0.00 0.00 81 1003.8
20260831140041 11 263 0.0 0.0 0.00 0.00 0.00 80 1003.9
20260831134546 11 263 0.0 0.0 0.00 0.00 0.00 80 1003.8
20260831133040 11 263 0.0 0.0 0.00 0.00 0.00 80 1003.8
20260831131542 11 263 0.0 0.0 0.00 0.00 0.00 80 1003.7
20260831130043 11 263 0.0 0.0 0.00 0.00 0.00 79 1003.6
20260831124546 11 263 0.0 0.0 0.00 0.00 0.00 79 1003.6
20260831123035 11 263 0.0 0.0 0.00 0.00 0.00 78 1003.7
20260831121543 11 263 0.0 0.0 0.00 0.00 0.00 78 1003.7
20260831120037 11 263 0.0 0.0 0.00 0.00 0.00 77 1003.7
20260831114533 11 263 0.0 1.6 0.00 0.00 0.00 77 1003.7
20260831113030 12 263 0.0 0.0 0.00 0.00 0.00 77 1003.8
20260831111528 12 263 0.0 0.0 0.00 0.00 0.00 76 1003.7
20260831110027 12 263 0.0 3.2 0.00 0.00 0.00 76 1003.8
20260831104529 12 263 0.0 0.0 0.00 0.00 0.00 76 1003.7
20260831103031 12 263 0.0 0.0 0.00 0.00 0.00 75 1003.6
20260831101526 12 263 0.0 0.0 0.00 0.00 0.00 74 1003.6
20260831100025 12 263 0.0 0.0 0.00 0.00 0.00 74 1003.6